Regional Weather Roundup
Issued by NWS

Home | Current Version | Previous Version | Text Only | Print | Product List | Glossary On
Versions: 1 2 3 4 5 6 7 8 9 10 11 12 13 14 15 16 17 18 19 20 21 22 23 24 25 26 27 28 29 30 31 32 33 34 35 36 37 38 39 40 41 42 43 44 45 46 47 48 49 50
000
ASCA44 KEWX 251612
RWRMX

LATIN AMERICA AND CARIBBEAN REGIONAL WEATHER ROUNDUP
NATIONAL WEATHER SERVICE AUSTIN/SAN ANTONIO TX
1100 AM CDT SUN JUN 25 2017

NOTE: "FAIR" INDICATED FEW OR NO CLOUDS BELOW 12,000 FEET WITH NO
SIGNIFICANT WEATHER AND/OR OBSTRUCTIONS TO VISIBILITY.

BAJA CALIFORNIA

CITY           SKY/WX    TMP DP  RH WIND       PRES   REMARKS
LORETO         MOSUNNY   82  75  78 S7        29.86R
LA PAZ         MOSUNNY   72  63  73 SW6       29.92S
MEXICALI       MOSUNNY   90  66  45 SE10      29.79R HX  92
S.J. DEL CABO  MOSUNNY   81  63  54 NE5       29.91R
TIJUANA        SUNNY     72  61  68 CALM      29.91S

NORTHWESTERN MEXICO

CITY           SKY/WX    TMP DP  RH WIND       PRES   REMARKS
CULIACAN       MOSUNNY   86  72  62 SE8       29.92F HX  92
DURANGO        MOSUNNY   72  48  43 E5        30.35S
GUAYMAS        MOSUNNY   90  75  62 CALM      29.84R HX 100
HERMOSILLO     MOSUNNY   93  68  43 SW3       29.92R HX  97
CD. JUAREZ     MOSUNNY   77  61  57 SE6       30.25R
LOS MOCHIS     PTSUNNY   84  68  58 SE20      29.92R
OBREGON        MOSUNNY   90  68  48 S13       29.88R HX  93

NORTHEASTERN MEXICO

CITY           SKY/WX    TMP DP  RH WIND       PRES   REMARKS
CHIHUAHUA      MOSUNNY   81  54  39 NE7       30.29S
MATAMOROS      PTSUNNY   86  79  79 E6        30.07S HX  99
MONCLOVA         N/A    N/A N/A N/A MISG        N/A
MONTERREY      PTSUNNY   82  61  47 SE7       30.15R
NUEVO LAREDO   MOSUNNY   86  72  62 E7        30.13S HX  92
PIEDRAS NEGRAS CLOUDY    82  73  74 E9        30.18R
REYNOSA        CLOUDY    75  72  88 CALM      30.00F
SALTILLO       PTSUNNY   77  57  50 CALM      30.34R
TORREON        MOSUNNY   84  55  37 NE9       30.21S
CD. VICTORIA   LGT RAIN  73  73 100 NW7       30.15R

WESTERN MEXICO

CITY           SKY/WX    TMP DP  RH WIND       PRES   REMARKS
AGUASCALIENTES PTSUNNY   73  48  40 NE6G17    30.34S
COLIMA         CLOUDY    77  73  88 CALM      30.05S
DEL BAJIO      PTSUNNY   72  52  49 NE14      30.35R
GUADALAJARA    PTSUNNY   72  55  56 NE10      30.22S
MANZANILLO     PTSUNNY   86  75  70 S6        29.87  HX  95
MAZATLAN       MOSUNNY   86  75  70 W3        29.91F HX  95
P. VALLARTA    PTSUNNY   84  77  79 CALM      29.90F HX  94
URUAPAN        CLOUDY    73  61  64 CALM      30.20S
ZACATECAS      PTSUNNY   66  50  55 S12       30.41R

CENTRAL MEXICO

CITY           SKY/WX    TMP DP  RH WIND       PRES   REMARKS
CUERNAVACA     PTSUNNY   73  63  68 CALM      30.19R
MEXICO CITY    PTSUNNY   68  50  52 E8        30.39R
MORELIA        PTSUNNY   66  57  72 N6        30.29R
POZA RICA      CLOUDY    79  75  89 N7        30.03F
PUEBLA         CLOUDY    64  54  68 NE5       30.41R
QUERETARO      PTSUNNY   70  54  56 E17       30.36
S. LUIS POTOSI CLOUDY    63  52  67 CALM      30.36R
TAMPICO        CLOUDY    79  73  83 W12       30.08R
TOLUCA         PTSUNNY   63  50  63 SE3       30.42S

SOUTHERN MEXICO

CITY           SKY/WX    TMP DP  RH WIND       PRES   REMARKS
ACAPULCO       LGT RAIN  77  75  94 NE6       29.95R
B. DE HUATULCO PTSUNNY  N/A N/A N/A E8        30.01
OAXACA         CLOUDY    72  59  64 CALM      30.29S
P. ESCONDIDO   CLOUDY    82  73  74 E9        30.02S
VERACRUZ       PTSUNNY   82  75  78 CALM      30.02R
ZIHUATANEJO    CLOUDY    82  75  78 E5        29.91R

YUCATAN PENINSULA

CITY           SKY/WX    TMP DP  RH WIND       PRES   REMARKS
CAMPECHE       MOSUNNY   84  79  84 E14       30.00R HX  96
CANCUN         PTSUNNY   88  77  70 E12       30.05S HX 100
CHETUMAL       PTSUNNY   82  77  83 CALM      30.02R HX  91
CD. DEL CARMEN CLOUDY   N/A N/A N/A SE9       29.99S
COZUMEL        PTSUNNY   86  77  74 E15       30.02S HX  97
MERIDA         PTSUNNY   86  75  70 E15       30.04R HX  95
MINATITLAN     CLOUDY    82  79  89 CALM      29.99R HX  93
TAPACHULA      PTSUNNY   86  77  74 NW7       29.90F HX  97
TUX. GUTIERREZ CLOUDY    75  70  83 E6        30.03F
VILLAHERMOSA   CLOUDY    79  75  89 CALM      30.00F

CENTRAL AMERICA

CITY           SKY/WX    TMP DP  RH WIND       PRES   REMARKS
BELIZE CITY    MOSUNNY   88  79  74 E9        30.00R HX 102
MANAGUA        MOSUNNY   88  73  62 E16       29.89S HX  96

CARIBBEAN

CITY           SKY/WX    TMP DP  RH WIND       PRES   REMARKS
ARUBA          MOSUNNY   90  77  66 E25       29.94S HX 102
CURACAO        MOSUNNY   90  73  58 E15       30.00R HX  98
KINGSTON       MOSUNNY   88  75  66 SE15      30.00S HX  97
NASSAU         MOSUNNY   91  75  59 E12       30.15S HX 102
SAN JUAN       MOSUNNY   88  75  66 E18       30.09S HX  97
SANTO DOMINGO  PTSUNNY   88  75  66 SE9       30.06S HX  97
ST. CROIX      MOSUNNY   88  75  66 E22G29    30.09S HX  97
ST. KITTS      MOSUNNY   88  77  70 NE16      30.09R HX 100
ST. THOMAS     PTSUNNY   93  75  55 E18G28    30.08S HX 104

$$





USA.gov is the U.S. government's official web portal to all federal, state and local government web resources and services.